Rbgn^[z[y[W
メイン
   新天体発見情報
     Comet C/2020 M5 (ATLAS)
投稿するにはまず登録を

スレッド表示 | 新しいものから 前のトピック | 次のトピック | 下へ
投稿者 スレッド
佐藤裕久
投稿日時: 2020-7-23 14:27
モデレータ
登録日: 2005-6-12
居住地: 日本
投稿: 2111
オンライン
Comet C/2020 M5 (ATLAS)

6月30日UT、ハワイ Mauna Loaにある小惑星地球衝突最終警報システム Asteroid Terrestrial-
impact Last Alert System (ATLAS)調査プログラムのコースに0.5-m f/2 Schmidt反射望遠鏡で
得たCCD画像から小惑星状天体が発見された。
R. Weryk (ハワイ大学, 天文学研究所)は、HaleakalaにあるPan-STARRS1 1.8-m Ritchey-Chretien
望遠鏡で得た画像から微かな発見前の観測を確認した。R. Werykは、この天体が彗星の形状を
示したかどうか確かと告げるには2019年はかすか過ぎることを注記した。G-バンド光度は+/-0.4
等と見積もられている。
小惑星センターのPCCP webpageに公表され、A. Catapano, A. NoscheseとE. Guido (Osservatorio 
Salvatore di Giacomo in Agerola, Pianillo, イタリア, 7月2.0日UT、フィルターなし60秒露出
108枚のスタック, 0.5-m f/8 Ritchey-Chretien反射望遠鏡:約7"のコンパクトなコマが見え、光度
は18.9-19.3等。7月3.0日, GuidoとCatapanoによって得たフィルターなし60秒露出90枚のスタック
では、約7"のコンパクトなコマが見え、光度は18.9等)や佐藤英貴氏(東京都文京区, 7月2.44日,
60秒露出10枚のスタック, 0.61-m f/6.5 アストログラフ, Sierra Remote天文台, Auberry近郊,
カリフォルニア州, 遠隔操作:強く集光した8" のコマが見るが尾はない。5".0の円形範囲で測定
した光度は18.9等であった)ら、CCD位置観測者により彗星状と観測された。

彗星機能の報告は次の通り:

OC   Date        Reporter           Coma    Tail    PA          Exposures
L07  2020-07-01  E. Guido            7"                          108x60s
U69  2020-07-02  H. Sato             8"                           10x60s
L07  2020-07-03  E. Guido            7"                           90x60s
F65  2020-07-08  P. Breitenstein     5"
157  2020-07-11  R. Haver            5"                           24x90s

発見位置は次のとおり、

     2019 UT             R.A. (2000) Decl.       Mag.
     Aug. 10.57266   22 54 41.35   +25 54 44.2   23.0
          10.58574   22 54 40.85   +25 54 46.5   23.6
          10.59882   22 54 40.32   +25 54 48.6   23.5
     Oct. 31.29237   21 59 12.73   +24 12 21.8   21.6
          31.30519   21 59 12.44   +24 12 19.0   22.0
          31.33087   21 59 11.78   +24 12 13.8   22.4
     Nov. 24.21507   21 53 03.18   +22 59 40.5   21.8
          24.22782   21 53 03.10   +22 59 38.9   21.9
          24.24063   21 53 03.00   +22 59 37.0   22.2
          24.25344   21 53 02.91   +22 59 35.1   22.1
          29.21535   21 52 37.56   +22 47 59.2   21.9

     2020 UT             R.A. (2000) Decl.       Mag.
     June 30.55531   22 36 12.39   +47 43 50.4   19.4
          30.55716   22 36 12.25   +47 43 51.7   19.1
          30.56223   22 36 12.07   +47 43 55.8   19.1
          30.57231   22 36 11.53   +47 44 04.1   19.4

MPCの楕円軌道要素、位置推算表は次のとおり、

Orbital elements:
    C/2020 M5 (ATLAS)                                                           
Epoch 2021 Aug. 14.0 TT = JDT 2459440.5                                         
T 2021 Aug. 19.88492 TT                                 Rudenko                 
q   3.0043441            (2000.0)            P               Q                  
z  +0.0000124      Peri.  126.33985     -0.59317064     -0.79327966             
 +/-0.0000027      Node   352.09479     -0.28628877     +0.36725844             
e   0.9999626      Incl.   93.22282     +0.75245420     -0.48562190             
From 178 observations 2019 Aug. 10-2020 July 19, mean residual 0".4.            
                                                                                
    C/2020 M5 (ATLAS)                                                           
Epoch 2020 May 31.0 TT = JDT 2459000.5                                          
T 2021 Aug. 19.93488 TT                                 Rudenko                 
q   3.0046718            (2000.0)            P               Q                  
z  +0.0002113      Peri.  126.33760     -0.59314454     -0.79331351             
 +/-0.0000027      Node   352.09958     -0.28636148     +0.36719574             
e   0.9993651      Incl.   93.22385     +0.75244711     -0.48561401             
From 178 observations 2019 Aug. 10-2020 July 19, mean residual 0".4.            
                                                                                
Ephemeris:
Date    TT    R. A. (2000) Decl.     Delta      r    Elong.  Phase   m1
2020 06 19    22 43 27.1 +45 06 43   4.9965  5.0044    84.6    11.7  19.5
...
2020 07 04    22 33 20.9 +48 29 41   4.7359  4.9016    93.4    12.0  19.3
...
2020 07 12    22 25 20.2 +50 12 47   4.6059  4.8470    97.6    12.0  19.2
...
2020 07 18    22 17 59.7 +51 25 34   4.5138  4.8062   100.6    12.0  19.1
2020 07 19    22 16 39.3 +51 37 12   4.4989  4.7994   101.1    12.0  19.1
2020 07 20    22 15 17.0 +51 48 41   4.4843  4.7926   101.6    12.0  19.1
...
2020 07 26    22 06 21.4 +52 53 45   4.3996  4.7520   104.2    12.0  19.0
...
2020 08 03    21 52 39.5 +54 08 25   4.2964  4.6980   107.2    11.9  18.9
...
2020 08 18    21 22 22.2 +55 40 03   4.1367  4.5974   111.0    11.9  18.7

(MPEC 2020-O30、CBET 4814)

スレッド表示 | 新しいものから 前のトピック | 次のトピック | トップ

投稿するにはまず登録を
 
© 1999 Tsutomu Seki.